timestamp,surface_pressure_avg,surface_temp_avg,battery_voltage,lat,long
2018-12-13 00:00:00+00:00,283.6763,2.62,12.81,47.84626,-54.09684
2018-12-13 00:10:00+00:00,289.158,2.67,12.73,47.84626,-54.09684
2018-12-13 00:20:00+00:00,289.0081,2.68,12.81,47.84626,-54.09684
2018-12-13 00:30:00+00:00,289.3363,2.64,12.81,47.84626,-54.09684
2018-12-13 00:40:00+00:00,294.738,2.72,12.89,47.84626,-54.09684
2018-12-13 00:50:00+00:00,302.3497,2.8,12.89,47.84626,-54.09684
2018-12-13 01:00:00+00:00,304.3665,2.89,12.81,47.84626,-54.09684
2018-12-13 01:10:00+00:00,310.5697,2.9,12.73,47.84626,-54.09684
2018-12-13 01:20:00+00:00,314.3314,2.9,12.81,47.84626,-54.09684
2018-12-13 01:30:00+00:00,314.8347,2.98,12.81,47.84626,-54.09684
2018-12-13 01:40:00+00:00,314.0063,3.0,12.89,47.84626,-54.09684
2018-12-13 01:50:00+00:00,321.2147,3.04,12.89,47.84626,-54.09684
2018-12-13 02:00:00+00:00,326.3379,3.1,12.81,47.84626,-54.09684
2018-12-13 02:10:00+00:00,324.3746,3.1,12.73,47.84626,-54.09684
2018-12-13 02:20:00+00:00,326.4899,3.13,12.81,47.84626,-54.09684
2018-12-13 02:30:00+00:00,327.2429,3.19,12.81,47.84626,-54.09684
2018-12-13 02:40:00+00:00,329.2746,3.2,12.89,47.84626,-54.09684
2018-12-13 02:50:00+00:00,326.4563,3.2,12.89,47.84626,-54.09684
2018-12-13 03:00:00+00:00,331.3729,3.2,12.81,47.84626,-54.09684
2018-12-13 03:10:00+00:00,336.9214,3.2,12.73,47.84626,-54.09684
2018-12-13 03:20:00+00:00,332.5079,3.2,12.81,47.84626,-54.09684
2018-12-13 03:30:00+00:00,329.463,3.2,12.81,47.84626,-54.09684
2018-12-13 03:40:00+00:00,330.7812,3.2,12.89,47.84626,-54.09684
2018-12-13 03:50:00+00:00,327.233,3.2,12.89,47.84626,-54.09684
2018-12-13 04:00:00+00:00,321.783,3.2,12.81,47.84626,-54.09684
2018-12-13 04:10:00+00:00,334.0197,3.2,12.73,47.84626,-54.09684
2018-12-13 04:20:00+00:00,338.5513,3.2,12.81,47.84626,-54.09684
2018-12-13 04:30:00+00:00,323.3264,2.85,12.81,47.84626,-54.09684
2018-12-13 04:40:00+00:00,325.0564,3.03,12.89,47.84626,-54.09684
2018-12-13 04:50:00+00:00,339.5796,3.19,12.89,47.84626,-54.09684
2018-12-13 05:00:00+00:00,334.473,3.1,12.81,47.84626,-54.09684
2018-12-13 05:10:00+00:00,326.868,3.0,12.73,47.84626,-54.09684
2018-12-13 05:20:00+00:00,330.2496,3.1,12.81,47.84626,-54.09684
2018-12-13 05:30:00+00:00,333.6963,3.1,12.81,47.84626,-54.09684
2018-12-13 05:40:00+00:00,323.7697,3.0,12.89,47.84626,-54.09684
2018-12-13 05:50:00+00:00,318.7679,2.9,12.89,47.84626,-54.09684
2018-12-13 06:00:00+00:00,323.7031,2.95,12.81,47.84626,-54.09684
2018-12-13 06:10:00+00:00,317.3913,3.0,12.73,47.84626,-54.09684
2018-12-13 06:20:00+00:00,304.0747,2.9,12.81,47.84626,-54.09684
2018-12-13 06:30:00+00:00,296.2747,2.96,12.81,47.84626,-54.09684
2018-12-13 06:40:00+00:00,287.9064,3.0,12.81,47.84626,-54.09684
2018-12-13 06:50:00+00:00,271.9781,3.1,12.89,47.84626,-54.09684
2018-12-13 07:00:00+00:00,263.8831,3.0,12.81,47.84626,-54.09684
2018-12-13 07:10:00+00:00,264.2664,3.1,12.73,47.84626,-54.09684
2018-12-13 07:20:00+00:00,256.9481,3.12,12.81,47.84626,-54.09684
2018-12-13 07:30:00+00:00,249.0764,3.16,12.81,47.84626,-54.09684
2018-12-13 07:40:00+00:00,247.1814,3.1,12.81,47.84626,-54.09684
2018-12-13 07:50:00+00:00,243.5848,3.0,12.89,47.84626,-54.09684
2018-12-13 08:00:00+00:00,235.7731,3.0,12.81,47.84626,-54.09684
2018-12-13 08:10:00+00:00,230.843,3.07,12.73,47.84626,-54.09684
2018-12-13 08:20:00+00:00,235.4231,3.19,12.81,47.84626,-54.09684
2018-12-13 08:30:00+00:00,241.3265,3.2,12.81,47.84626,-54.09684
2018-12-13 08:40:00+00:00,236.8781,3.2,12.81,47.84626,-54.09684
2018-12-13 08:50:00+00:00,231.178,3.2,12.81,47.84626,-54.09684
2018-12-13 09:00:00+00:00,238.3114,3.2,12.73,47.84626,-54.09684
2018-12-13 09:10:00+00:00,245.0464,3.2,12.73,47.84626,-54.09684
2018-12-13 09:20:00+00:00,242.423,3.1,12.81,47.84626,-54.09684
2018-12-13 09:30:00+00:00,241.8015,3.06,12.81,47.84626,-54.09684
2018-12-13 09:40:00+00:00,242.7831,3.0,12.81,47.84626,-54.09684
2018-12-13 09:50:00+00:00,240.1597,3.0,12.81,47.84626,-54.09684
2018-12-13 10:00:00+00:00,241.1914,2.9,12.73,47.84626,-54.09684
2018-12-13 10:10:00+00:00,244.7398,2.9,12.73,47.84626,-54.09684
2018-12-13 10:20:00+00:00,242.8665,2.9,12.81,47.84626,-54.09684
2018-12-13 10:30:00+00:00,242.2531,2.8,12.81,47.84626,-54.09684
2018-12-13 10:40:00+00:00,243.703,2.8,12.81,47.84626,-54.09684
2018-12-13 10:50:00+00:00,244.0364,2.8,12.81,47.84626,-54.09684
2018-12-13 11:00:00+00:00,240.7097,2.8,12.73,47.84626,-54.09684
2018-12-13 11:10:00+00:00,244.0531,2.8,12.73,47.84626,-54.09684
2018-12-13 11:20:00+00:00,248.6581,2.8,12.81,47.84626,-54.09684
2018-12-13 11:30:00+00:00,251.6763,2.8,12.81,47.84626,-54.09684
2018-12-13 11:40:00+00:00,253.2481,2.8,12.81,47.84626,-54.09684
2018-12-13 11:50:00+00:00,253.6831,2.8,12.89,47.84626,-54.09684
2018-12-13 12:00:00+00:00,255.5897,2.8,12.81,47.84626,-54.09684
2018-12-13 12:10:00+00:00,258.3281,2.87,12.97,47.84626,-54.09684
2018-12-13 12:20:00+00:00,265.8997,3.0,13.05,47.84626,-54.09684
2018-12-13 12:30:00+00:00,273.7847,3.09,13.05,47.84626,-54.09684
2018-12-13 12:40:00+00:00,281.3614,2.8,13.21,47.84626,-54.09684
2018-12-13 12:50:00+00:00,284.3781,2.8,13.29,47.84626,-54.09684
2018-12-13 13:00:00+00:00,290.7097,2.82,13.29,47.84626,-54.09684
2018-12-13 13:10:00+00:00,293.973,2.86,13.68,47.84626,-54.09684
2018-12-13 13:20:00+00:00,304.098,2.9,14.96,47.84626,-54.09684
2018-12-13 13:30:00+00:00,312.0347,2.9,15.2,47.84626,-54.09684
2018-12-13 13:40:00+00:00,317.6014,2.9,16.39,47.84626,-54.09684
2018-12-13 13:50:00+00:00,317.743,2.87,16.63,47.84626,-54.09684
2018-12-13 14:00:00+00:00,327.8613,2.86,16.39,47.84626,-54.09684
2018-12-13 14:10:00+00:00,335.688,2.9,14.88,47.84626,-54.09684
2018-12-13 14:20:00+00:00,334.2963,2.87,15.11,47.84626,-54.09684
2018-12-13 14:30:00+00:00,340.7596,2.89,14.56,47.84626,-54.09684
2018-12-13 14:40:00+00:00,352.8179,2.9,14.64,47.84626,-54.09684
2018-12-13 14:50:00+00:00,349.3246,2.9,14.48,47.84626,-54.09684
2018-12-13 15:00:00+00:00,341.973,2.9,14.32,47.84626,-54.09684
2018-12-13 15:10:00+00:00,349.8313,2.9,14.16,47.84626,-54.09684
2018-12-13 15:20:00+00:00,355.0962,2.9,14.24,47.84626,-54.09684
2018-12-13 15:30:00+00:00,344.9862,2.9,14.48,47.84626,-54.09684
2018-12-13 15:40:00+00:00,344.6447,2.9,14.64,47.84626,-54.09684
2018-12-13 15:50:00+00:00,350.3147,2.9,16.71,47.84626,-54.09684
2018-12-13 16:00:00+00:00,345.8763,2.9,15.11,47.84626,-54.09684
2018-12-13 16:10:00+00:00,337.093,2.9,15.04,47.84626,-54.09684
2018-12-13 16:20:00+00:00,342.1646,2.9,15.11,47.84626,-54.09684
2018-12-13 16:30:00+00:00,347.4463,2.9,15.04,47.84626,-54.09684
2018-12-13 16:40:00+00:00,336.8947,2.9,14.96,47.84626,-54.09684
2018-12-13 16:50:00+00:00,334.143,2.9,14.96,47.84626,-54.09684
2018-12-13 17:00:00+00:00,336.5831,2.9,14.88,47.84626,-54.09684
2018-12-13 17:10:00+00:00,331.2562,2.9,14.88,47.84626,-54.09684
2018-12-13 17:20:00+00:00,323.0347,2.9,14.96,47.84626,-54.09684
2018-12-13 17:30:00+00:00,323.238,2.9,14.88,47.84626,-54.09684
2018-12-13 17:40:00+00:00,319.9996,2.95,14.88,47.84626,-54.09684
2018-12-13 17:50:00+00:00,310.4647,2.9,14.88,47.84626,-54.09684
2018-12-13 18:00:00+00:00,304.5063,2.9,14.72,47.84626,-54.09684
2018-12-13 18:10:00+00:00,303.0114,2.9,14.72,47.84626,-54.09684
2018-12-13 18:20:00+00:00,296.5764,2.95,14.8,47.84626,-54.09684
2018-12-13 18:30:00+00:00,290.0497,2.9,14.72,47.84626,-54.09684
2018-12-13 18:40:00+00:00,281.5347,2.94,14.72,47.84626,-54.09684
2018-12-13 18:50:00+00:00,274.298,2.99,14.64,47.84626,-54.09684
2018-12-13 19:00:00+00:00,264.3747,3.0,14.4,47.84626,-54.09684
2018-12-13 19:10:00+00:00,257.4781,3.08,14.08,47.84626,-54.09684
2018-12-13 19:20:00+00:00,248.7164,3.1,14.08,47.84626,-54.09684
2018-12-13 19:30:00+00:00,242.453,3.11,14.0,47.84626,-54.09684
2018-12-13 19:40:00+00:00,237.1514,3.19,13.92,47.84626,-54.09684
2018-12-13 19:50:00+00:00,228.2448,3.17,13.84,47.84626,-54.09684
2018-12-13 20:00:00+00:00,222.9131,3.1,13.68,47.84626,-54.09684
2018-12-13 20:10:00+00:00,221.3198,3.1,13.53,47.84626,-54.09684
2018-12-13 20:20:00+00:00,217.4465,3.16,13.53,47.84626,-54.09684
2018-12-13 20:30:00+00:00,212.9065,3.2,13.44,47.84626,-54.09684
2018-12-13 20:40:00+00:00,215.8814,3.2,13.44,47.84626,-54.09684
2018-12-13 20:50:00+00:00,218.7714,3.2,13.37,47.84626,-54.09684
2018-12-13 21:00:00+00:00,214.7931,3.2,13.29,47.84626,-54.09684
2018-12-13 21:10:00+00:00,211.3048,3.2,13.13,47.84626,-54.09684
2018-12-13 21:20:00+00:00,216.6081,3.2,13.21,47.84626,-54.09684
2018-12-13 21:30:00+00:00,221.0815,3.2,13.21,47.84626,-54.09684
2018-12-13 21:40:00+00:00,223.4198,3.2,13.21,47.84626,-54.09684
2018-12-13 21:50:00+00:00,225.683,3.2,13.21,47.84626,-54.09684
2018-12-13 22:00:00+00:00,228.9731,3.22,13.05,47.84626,-54.09684
2018-12-13 22:10:00+00:00,232.9548,3.29,12.97,47.84626,-54.09684
2018-12-13 22:20:00+00:00,236.4164,3.3,13.05,47.84626,-54.09684
2018-12-13 22:30:00+00:00,237.2281,3.3,13.05,47.84626,-54.09684
2018-12-13 22:40:00+00:00,238.7281,3.3,13.05,47.84626,-54.09684
2018-12-13 22:50:00+00:00,239.0047,3.3,13.05,47.84626,-54.09684
2018-12-13 23:00:00+00:00,235.6998,3.2,13.05,47.84626,-54.09684
2018-12-13 23:10:00+00:00,231.7314,3.2,12.97,47.84626,-54.09684
2018-12-13 23:20:00+00:00,228.9181,3.18,13.05,47.84626,-54.09684
2018-12-13 23:30:00+00:00,231.1297,3.11,13.05,47.84626,-54.09684
2018-12-13 23:40:00+00:00,230.3247,3.1,13.05,47.84626,-54.09684
2018-12-13 23:50:00+00:00,229.2564,3.1,13.05,47.84626,-54.09684
